TIANQI 18

Satellite information

Favourite Embed

Satellite Type and Status

PAYLOADIN ORBIT

Key statistics

Satellite TIANQI 18 at a glance.

Uptime

208

Days in orbit

Revolutions

≈ 14.0

Per day

Orbit

LEO

Low Earth Orbit

Inclination

45.0

Latest

Satellite identification and parameters

Extended collection of information and parameters for TIANQI 18.

Object identification

Identified? True

Debris? False

Object name: TIANQI 18

International designator: 2025-105C

Object number (NORAD): 64060

Object ID (CCSDS): 64060

Country: PEOPLES REPUBLIC OF CHINA (PRC)

Current information (Y/N): Y

RCS size: MEDIUM

Orbital parameters

Period: 102.927 minutes

Inclination: 44.9832 deg

SMA: 7275.232 km

Apoapsis: 904.784 km

Periapsis: 889.41 km

RAAN: 133.9078 deg

Eccentricy: 0.0010566

Argument of periapsis: 225.0119 deg

Mean anomaly: 134.9858 deg

Mean motion: 13.99047576 rev/day

Mean motion (dot): 0.00000078 rev/day2

B* drag term: 0.00014185914 1/REarth

Two-line elements (TLE)

Creation date: Dec. 12, 2025, 10:14 a.m.

Reference frame: TEME

Reference center: EARTH

Epoch: Dec. 12, 2025, 5:38 a.m. UTC

TLE line 0: 0 TIANQI 18

TLE line 1: 1 64060U 25105C 25346.23508048 .00000078 00000-0 14186-3 0 9997

TLE line 2: 2 64060 44.9832 133.9078 0010566 225.0119 134.9858 13.99047576 29018

Live tracking on map

Real-time ground track for satellite TIANQI 18.

In-orbit conjunctions

There are no conjunctions computed for TIANQI 18, at the moment. Check back to stay up to date, as we update our databases every day.

Go to all conjunctions

Associated space launch

4 small satellites for LEO Internet of Things (IoT) communication purposes.

TIANQI 18 was lifted into orbit during the mission ‘Ceres-1S | Tianqi 16-18 & 20’, on board a Ceres-1S space rocket.

The launch took place on May 19, 2025, 7:38 a.m. from Oriental Spaceport mobile launch ship.

For more information about the launch, click the button.

Launch to space Ceres-1S | Tianqi 16-18 & 20
Ceres-1S | Tianqi 16-18 & 20

Agency: N/A

Status: Launch Successful

Launch date: May 19, 2025, 7:38 a.m. UTC

Rocket: Ceres-1S

Launch pad: Oriental Spaceport mobile launch ship

Location: Sea Launch

...

Latest news about this satellite

News about space launch
China launches classified comms satellite, conducts commercial sea launch

China has continued an uptick in launch activity with a Long March 7A mission to geosynchronous orbit and sea launch of a Ceres-1 solid rocket. The post China launches classified comms satellite, conducts commercial sea launch appeared first on SpaceNews...


Newsletter sign-up

Weekly statistics, charts and insights to help you stay on top of the space industry.